Regional Weather Roundup
Issued by NWS

Home | Current Version | Previous Version | Text Only | Print | Product List | Glossary Off
Versions: 1 2 3 4 5 6 7 8 9 10 11 12 13 14 15 16 17 18 19 20 21 22 23 24 25 26 27 28 29 30 31 32 33 34 35 36 37 38 39 40 41 42 43 44 45 46 47 48 49 50

000
ASUS43 KMPX 231301
RWRMN
WEATHER ROUNDUP FOR MINNESOTA
NATIONAL WEATHER SERVICE TWIN CITIES/CHANHASSEN MN
800 AM CDT SAT SEP 23 2017


NOTE: "FAIR" INDICATES FEW OR NO CLOUDS BELOW 12,000 FEET WITH NO
SIGNIFICANT WEATHER AND/OR OBSTRUCTIONS TO VISIBILITY. N/A MEANS
CURRENT SKY AND/OR WEATHER CONDITIONS ARE NOT AVAILABLE.

MNZ060>063-068>070-231400-
   Twin Cities Metro

CITY           SKY/WX    TMP DP  RH WIND       PRES   REMARKS
TWIN CITIES    MOCLDY    74  69  85 SE5       29.96R
ST PAUL        PTCLDY    72  69  90 SE8       29.96R
CRYSTAL        MOCLDY    75  65  70 S8        29.94R
BLAINE         MOCLDY    75  70  83 S7        29.95R
LAKEVILLE      CLEAR     72  66  83 CALM      29.96R
EDEN PRAIRIE   CLOUDY    74  68  81 SW7       29.95R
SOUTH ST PAUL  CLEAR     72  67  83 S3        29.95R
LAKE ELMO      FAIR      72  68  88 S6        29.97R
$$
MNZ001>005-007-008-013>017-022>024-027-028-231400-
   Northwest Minnesota

CITY           SKY/WX    TMP DP  RH WIND       PRES   REMARKS
BEMIDJI        LGT RAIN  53  52  98 N3        29.93F
HALLOCK          N/A     52  48  87 NW12      29.97R
ROSEAU           N/A     52  46  82 NW5       29.94R
WARROAD        CLOUDY    52  48  87 NW7       29.93R
CROOKSTON      CLOUDY    50  48  93 N12       29.98F FOG
FOSSTON        CLOUDY    48  48 100 W6        29.99R
DETROIT LAKES  LGT RAIN  50  50 100 N5        29.98S
MOORHEAD       CLOUDY    52  48  87 N7        30.00S
PARK RAPIDS    MOCLDY    55  53  93 NW7       29.93F
MAHNOMEN       LGT RAIN  50  49  97 W3        29.99R
$$
MNZ006-009>011-018-025>026-231400-
   North Central Minnesota

CITY           SKY/WX    TMP DP  RH WIND       PRES   REMARKS
BAUDETTE       CLOUDY    54  54 100 W6        29.91R
FLAG ISLAND    CLOUDY    54  52  94 NW15      29.88R
INTL FALLS     CLOUDY    59  58  96 W8        29.88R FOG
WASKISH        CLOUDY    54  54 100 W7        29.95R
BIG FORK       CLOUDY    64  61  88 W10       29.94R
LONGVILLE      CLOUDY    63  63 100 W5        29.95R
GRAND RAPIDS   LGT RAIN  66  64  93 W6        29.95R
CRANE LAKE     CLOUDY    68  64  88 S5        29.87R
ORR            CLOUDY    66  61  82 SW8G16    29.89R
COOK           CLOUDY    68  64  88 SW8       29.91R
WALKER         RAIN      55  54  97 NW8       29.95F
$$
MNZ012-019>021-037-231400-
   Northeast Minnesota

CITY           SKY/WX    TMP DP  RH WIND       PRES   REMARKS
DULUTH         MOCLDY    71  69  93 SW7       29.93R
ELY            CLOUDY    66  64  94 SW8       29.90R
HIBBING        MOCLDY    65  64  97 SW3       29.92R
EVELETH        CLOUDY    65  62  88 SW6       29.93R
DULUTH HARBOR  MOCLDY    64  63  94 NW3       29.91R
TWO HARBORS      N/A     66  63  88 CALM      29.88R HAZE
$$
MNZ029>031-032-039>041-046>048-054>057-064-231400-
   West Central Minnesota

CITY           SKY/WX    TMP DP  RH WIND       PRES   REMARKS
FERGUS FALLS   CLOUDY    54  54 100 E5        29.94F
WHEATON        CLOUDY    54  52  94 NW12      29.97R
MORRIS         CLOUDY    55  54  94 NE6       29.93F
ALEXANDRIA     CLOUDY    58  57  97 NW6       29.95F
ELBOW LAKE     CLOUDY    54  53  99 N9        29.93F
WADENA         LGT RAIN  54  54 100 CALM      29.96S
GLENWOOD       CLOUDY    57  57 100 N3        29.94F
APPLETON       CLOUDY    57  54  88 NE5       29.93F
BENSON         CLOUDY    57  55  94 NE3       29.96S
ORTONVILLE     CLOUDY    55  54  94 N3        29.95R
MADISON        CLOUDY    61  61 100 CALM      29.95S
WILLMAR        MOCLDY    61  59  94 NE6       29.96F
$$
MNZ033>034-036-042>043-049>051-058-059-231400-
   Central Minnesota

CITY           SKY/WX    TMP DP  RH WIND       PRES   REMARKS
ST CLOUD       CLOUDY    71  70  96 SW3       29.94R
SAUK CENTRE    FAIR      61  60  95 E6        29.93F
PAYNESVILLE    CLOUDY    64  62  93 W6        29.96F
AITKIN         CLOUDY    66  64  94 CALM      29.93R
PINE RIVER     CLOUDY    59  57  94 NW5       29.97R
BRAINERD       CLOUDY    66  64  93 W6        29.94R
STAPLES        CLOUDY    55  55 100 NW5       29.94F
LITTLE FALLS   CLOUDY    66  61  82 CALM      29.94S
LITCHFIELD     CLOUDY    70  66  88 NW8G16    29.96R
BUFFALO        CLOUDY    73  66  79 CALM      29.95R
MAPLE LAKE     CLOUDY    73  70  91 S3        29.95R
HUTCHINSON     CLOUDY    72  69  92 SW6       29.96R
$$
MNZ037-044-045-052-053-231400-
   East Central Minnesota

CITY           SKY/WX    TMP DP  RH WIND       PRES   REMARKS
PRINCETON      CLOUDY    75  70  83 S8        29.94R
MORA           CLOUDY    70  64  83 SW3       29.96R
CAMBRIDGE      CLOUDY    77  64  65 S8        29.93R
RUSH CITY      PTCLDY    72  67  83 S8        29.94R
MOOSE LAKE     PTCLDY    70  66  88 CALM      29.91R
HINCKLEY       FAIR      72  70  94 CALM      29.93R
CLOQUET        MOCLDY    72  66  83 SW5       29.93R
MCGREGOR       CLOUDY    70  64  83 SW3       29.94R
$$
MNZ071>073-080-081-089-090-097-098-231400-
   Southwest Minnesota

CITY           SKY/WX    TMP DP  RH WIND       PRES   REMARKS
MONTEVIDEO     CLOUDY    57  57 100 NE6       29.95S
GRANITE FALLS  CLOUDY    61  57  87 NE7       29.96F
CANBY          CLOUDY    58  55  91 CALM      29.97S
MARSHALL       CLOUDY    58  55  90 N5        29.97R
REDWOOD FALLS  CLOUDY    62  58  86 N12G18    29.96R
OLIVIA         CLOUDY    59  55  88 N13       29.96R
PIPESTONE      CLOUDY    61  59  94 NE7       29.96R FOG
WORTHINGTON    MOCLDY    70  67  90 W3        29.97R
JACKSON        CLEAR     70  64  83 CALM      29.98R
TRACY          CLOUDY    59  56  91 N6        29.98R
SLAYTON        CLOUDY    59  51  73 N9        29.98R HAZE
$$
MNZ065>067-074>077-082>085-091>093-231400-
   South Central Minnesota

CITY           SKY/WX    TMP DP  RH WIND       PRES   REMARKS
MANKATO        PTCLDY    72  67  84 S8        29.96R
NEW ULM        MOCLDY    70  66  88 S7        29.95R
ST JAMES       CLEAR     70  66  88 S5        29.96R
FAIRMONT       CLEAR     71  67  87 S6        29.97R
FARIBAULT      CLEAR     72  66  83 S6        29.97R
OWATONNA       CLEAR     72  66  83 S9        29.98R
WASECA         CLEAR     72  64  78 S9        29.99R
ALBERT LEA     CLEAR     73  68  83 S8        29.99S
$$
MNZ078>079-086>088-094>096-231400-
   Southeast Minnesota

CITY           SKY/WX    TMP DP  RH WIND       PRES   REMARKS
ROCHESTER      SUNNY     70  66  87 S10       30.02R
RED WING       SUNNY     75  64  69 SE3       29.96R
STANTON        CLEAR     73  67  81 S7        29.95R
DODGE CENTER   CLEAR     72  64  78 S13G18    30.00R
WINONA         SUNNY     72  66  83 CALM      30.00S
AUSTIN         CLEAR     70  64  83 S6        30.01R
PRESTON        SUNNY     68  64  86 S9        30.04R
$$
ABBREVIATIONS USED IN REMARKS
   TC - TEMPERATURES IN CELSIUS
  WCI - WIND CHILL INDEX
   HX - HEAT INDEX
  VSB - VISIBILITY
$$




USA.gov is the U.S. government's official web portal to all federal, state and local government web resources and services.